GW4332 Weather Reports


time (UTC)temp
C
wind
direction
speed
KPH
gust
KPH
rain 1hr
cm
rain 24hr
cm
rain mn
cm
humidity
%
barometer
mb
20260831085030 17 190 12.9 30.6 0.00 0.00 0.28 86 1007.0
20260831084030 17 197 19.3 38.6 0.00 0.00 0.28 87 1006.9
20260831083030 17 190 14.5 38.6 0.00 0.00 0.28 89 1007.0
20260831082029 16 191 12.9 30.6 0.00 0.00 0.28 90 1007.0
20260831081029 16 202 9.7 25.7 0.00 0.00 0.28 91 1007.1
20260831080030 16 205 11.3 27.4 0.00 0.00 0.28 91 1007.0
20260831075030 16 184 9.7 22.5 0.00 0.00 0.28 91 1006.9
20260831074030 16 167 6.4 22.5 0.00 0.00 0.28 91 1006.6
20260831073030 16 181 4.8 17.7 0.00 0.00 0.28 91 1006.5
20260831072030 16 182 8.0 20.9 0.00 0.00 0.28 90 1006.9
20260831071030 16 199 11.3 22.5 0.00 0.00 0.28 90 1007.3
20260831070030 16 176 9.7 30.6 0.00 0.00 0.28 89 1007.3
20260831065030 16 203 14.5 33.8 0.00 0.00 0.23 89 1007.4
20260831064030 16 205 16.1 32.2 0.00 0.00 0.15 89 1007.4
20260831063030 16 187 14.5 30.6 0.00 0.00 0.15 90 1007.3
20260831062030 16 193 12.9 30.6 0.00 0.00 0.15 90 1007.3
20260831061030 16 190 8.0 22.5 0.00 0.00 0.15 91 1007.1
20260831060030 16 200 6.4 17.7 0.00 0.00 0.15 91 1006.9
20260831055030 16 193 6.4 19.3 0.00 0.00 0.15 91 1006.9
20260831054030 16 174 4.8 17.7 0.00 0.00 0.15 91 1006.8
20260831053030 16 184 4.8 24.1 0.00 0.00 0.15 91 1006.9
20260831052030 16 155 3.2 16.1 0.00 0.00 0.15 91 1006.8
20260831051030 16 176 4.8 19.3 0.00 0.00 0.15 91 1007.0
20260831050030 16 189 4.8 19.3 0.00 0.00 0.15 91 1006.9
20260831045030 16 183 6.4 19.3 0.00 0.00 0.15 91 1006.9
20260831044029 16 179 4.8 19.3 0.00 0.00 0.15 91 1006.8
20260831043030 16 196 6.4 14.5 0.00 0.00 0.15 91 1006.8
20260831042030 16 186 3.2 11.3 0.00 0.00 0.15 91 1006.7
20260831040030 16 202 6.4 16.1 0.00 0.00 0.15 91 1007.0
20260831035030 16 181 4.8 19.3 0.00 0.00 0.15 91 1007.1
20260831034030 16 150 3.2 8.0 0.00 0.00 0.15 90 1007.2
20260831033030 16 145 3.2 11.3 0.00 0.00 0.15 90 1007.1
20260831032030 16 134 3.2 9.7 0.00 0.00 0.15 90 1007.1
20260831031030 16 126 3.2 9.7 0.00 0.00 0.15 90 1007.2
20260831030030 16 133 3.2 9.7 0.00 0.00 0.15 90 1007.1
20260831025029 16 138 3.2 9.7 0.00 0.00 0.15 90 1007.3
20260831024030 16 176 3.2 11.3 0.00 0.00 0.15 90 1007.4
20260831023030 16 120 3.2 9.7 0.00 0.00 0.15 90 1007.6
20260831022030 16 156 3.2 9.7 0.00 0.00 0.15 90 1007.6
20260831021030 16 186 4.8 11.3 0.00 0.00 0.15 90 1007.7
20260831020030 16 190 4.8 9.7 0.00 0.00 0.15 90 1007.8
20260831015030 16 183 4.8 11.3 0.00 0.00 0.15 90 1007.9
20260831014030 16 196 3.2 11.3 0.00 0.00 0.15 90 1007.7
20260831013030 16 193 3.2 8.0 0.00 0.00 0.15 90 1007.6
20260831012029 16 140 3.2 8.0 0.00 0.00 0.15 90 1007.6
20260831011029 16 120 3.2 8.0 0.00 0.00 0.15 90 1007.5
20260831010030 16 156 3.2 9.7 0.00 0.00 0.15 90 1007.8
20260831005030 16 136 1.6 8.0 0.00 0.00 0.15 90 1007.9
20260831004029 16 183 3.2 8.0 0.00 0.00 0.15 90 1008.1
20260831003030 16 139 3.2 11.3 0.00 0.00 0.15 90 1008.1
20260831002030 16 136 3.2 9.7 0.00 0.00 0.15 90 1008.1
20260831001030 16 121 3.2 9.7 0.00 0.00 0.15 90 1008.2
20260831000030 17 103 3.2 11.3 0.00 0.00 0.15 90 1008.1
20260830235030 17 137 3.2 9.7 0.00 0.00 0.15 89 1008.2
20260830234030 17 119 3.2 9.7 0.00 0.00 0.15 90 1008.3
20260830233030 17 106 3.2 6.4 0.00 0.00 0.15 89 1008.4
20260830232030 17 153 0.0 3.2 0.00 0.00 0.15 89 1008.4
20260830231030 17 172 3.2 8.0 0.00 0.00 0.15 89 1008.5
20260830230030 17 151 1.6 6.4 0.00 0.00 0.15 89 1008.5
20260830225030 17 197 6.4 11.3 0.00 0.00 0.15 89 1008.7
20260830224030 17 216 9.7 16.1 0.00 0.00 0.15 89 1008.8
20260830223030 17 229 11.3 20.9 0.00 0.00 0.15 88 1008.9
20260830222030 17 199 4.8 12.9 0.00 0.00 0.05 87 1009.0
20260830221030 17 98 3.2 11.3 0.00 0.00 0.00 87 1008.9
20260830220030 17 102 3.2 9.7 0.00 0.00 1.27 87 1008.9
20260830215030 17 113 1.6 9.7 0.00 0.00 1.27 87 1009.0
20260830214030 17 118 3.2 16.1 0.00 0.00 1.27 87 1009.1
20260830213030 17 151 1.6 16.1 0.00 0.00 1.27 87 1009.1
20260830212029 17 108 3.2 14.5 0.00 0.00 1.27 87 1009.2
20260830211030 17 131 3.2 12.9 0.00 0.00 1.27 86 1009.2
20260830210030 17 139 4.8 12.9 0.00 0.00 1.27 86 1009.3
20260830205030 18 129 3.2 12.9 0.00 0.00 1.27 85 1009.3
20260830204030 18 139 3.2 11.3 0.00 0.00 1.27 85 1009.5
20260830203030 18 136 3.2 11.3 0.00 0.00 1.27 85 1009.6
20260830202030 18 139 0.0 9.7 0.00 0.00 1.27 84 1009.7
20260830201030 18 101 0.0 1.6 0.00 0.00 1.27 84 1009.8
20260830200030 18 180 0.0 0.0 0.00 0.00 1.27 83 1009.9
20260830195030 18 180 0.0 0.0 0.00 0.00 1.27 83 1009.9
20260830194029 18 180 0.0 0.0 0.00 0.00 1.27 82 1010.1
20260830193030 18 180 0.0 0.0 0.00 0.00 1.27 82 1010.1
20260830192030 18 180 0.0 0.0 0.00 0.00 1.27 81 1010.2
20260830191031 18 129 0.0 1.6 0.00 0.00 1.27 81 1010.2
20260830190029 18 112 1.6 6.4 0.00 0.00 1.27 81 1010.1
20260830185029 19 119 1.6 4.8 0.00 0.00 1.27 81 1010.1
20260830184029 19 149 1.6 4.8 0.00 0.00 1.27 81 1010.2
20260830183030 19 163 1.6 4.8 0.00 0.00 1.27 82 1010.4
20260830182030 19 198 1.6 6.4 0.00 0.00 1.27 82 1010.5
20260830181030 19 179 1.6 4.8 0.00 0.00 1.27 83 1010.2
20260830180030 19 188 3.2 6.4 0.00 0.00 1.27 83 1010.2
20260830175030 20 196 4.8 8.0 0.00 0.00 1.27 83 1010.2
20260830174030 20 196 4.8 8.0 0.00 0.00 1.27 83 1010.4
20260830173030 20 205 8.0 14.5 0.00 0.00 1.27 83 1010.4
20260830172030 20 209 8.0 14.5 0.00 0.00 1.27 83 1010.5
20260830171030 20 206 6.4 12.9 0.00 0.00 1.27 83 1010.5
20260830170030 20 216 9.7 19.3 0.00 0.00 1.27 83 1010.5
20260830165030 20 226 11.3 19.3 0.00 0.00 1.27 83 1010.6
20260830164029 20 220 11.3 19.3 0.00 0.00 1.27 83 1010.6
20260830163030 20 225 14.5 22.5 0.00 0.00 1.27 83 1010.6
20260830162030 20 235 17.7 24.1 0.00 0.00 1.27 84 1010.5
20260830161030 20 225 19.3 27.4 0.00 0.00 1.27 84 1010.5
20260830160030 20 232 20.9 27.4 0.00 0.00 1.27 83 1010.5
20260830155030 20 235 20.9 27.4 0.00 0.00 1.27 83 1010.5
20260830154030 20 220 20.9 29.0 0.00 0.00 1.27 82 1010.5
20260830153030 20 229 17.7 27.4 0.00 0.00 1.27 82 1010.6
20260830152030 20 217 19.3 29.0 0.00 0.00 1.27 82 1010.7
20260830151030 20 232 17.7 27.4 0.00 0.00 1.27 83 1010.8
20260830150030 19 223 17.7 27.4 0.00 0.00 1.27 83 1010.7
20260830145030 19 231 19.3 29.0 0.00 0.00 1.27 85 1010.7
20260830144030 19 227 19.3 27.4 0.00 0.00 1.27 86 1010.7
20260830143030 19 237 19.3 30.6 0.00 0.00 1.27 87 1010.6
20260830142030 18 228 19.3 33.8 0.00 0.00 1.27 87 1010.6
20260830141030 18 233 20.9 30.6 0.00 0.00 1.27 89 1010.5
20260830140029 18 230 20.9 32.2 0.00 0.00 1.27 90 1010.6
20260830135029 18 218 19.3 30.6 0.00 0.00 1.27 90 1010.6
20260830134030 18 231 17.7 32.2 0.00 0.00 1.27 89 1010.6
20260830133030 18 227 19.3 35.4 0.00 0.00 1.27 89 1010.6
20260830132030 19 215 16.1 32.2 0.00 0.00 1.27 90 1010.4
20260830131030 19 225 19.3 27.4 0.00 0.00 1.27 90 1010.3
20260830130030 18 221 16.1 24.1 0.00 0.00 1.27 91 1010.2
20260830125030 18 236 16.1 24.1 0.00 0.00 1.27 91 1010.2
20260830123030 18 214 16.1 22.5 0.00 0.00 1.27 93 1010.1
20260830122030 18 216 14.5 20.9 0.00 0.00 1.27 93 1010.1
20260830121030 18 230 14.5 22.5 0.00 0.00 1.27 94 1010.0
20260830120030 18 224 14.5 22.5 0.00 0.00 1.27 95 1010.0
20260830115030 18 237 14.5 20.9 0.00 0.00 1.27 95 1010.0
20260830114030 18 233 12.9 17.7 0.00 0.00 1.27 95 1009.8
20260830113030 17 249 14.5 17.7 0.00 0.00 1.27 95 1009.6
20260830112030 17 256 14.5 17.7 0.00 0.00 1.27 95 1009.5
20260830111030 17 252 12.9 17.7 0.00 0.00 1.27 95 1009.4
20260830110030 17 245 14.5 17.7 0.00 0.00 1.27 95 1009.3
20260830105030 17 260 14.5 17.7 0.00 0.00 1.27 95 1009.3
20260830104030 17 255 14.5 19.3 0.00 0.00 1.27 95 1009.2
20260830103030 17 245 11.3 19.3 0.00 0.00 1.27 95 1009.2
20260830102030 17 254 11.3 16.1 0.00 0.00 1.27 95 1009.1
20260830101030 17 254 14.5 19.3 0.00 0.00 1.27 95 1008.9
20260830100030 17 247 14.5 19.3 0.00 0.00 1.27 95 1008.8
20260830095029 17 253 17.7 24.1 0.00 0.00 1.27 95 1008.8
20260830094030 17 249 16.1 20.9 0.00 0.00 1.27 95 1008.7
20260830093030 17 244 16.1 20.9 0.00 0.00 1.24 95 1008.5
20260830092030 17 247 17.7 24.1 0.00 0.00 1.24 95 1008.5
20260830091030 17 261 19.3 22.5 0.00 0.00 1.24 95 1008.3
20260830090030 17 253 20.9 27.4 0.00 0.00 1.22 95 1008.2